User: anonymous   Login
Location: Edinburgh
(55.9500°N, 3.1600°W)
Time: 13:39:53
(UTC+00:00)
Language:

N. Korean satellite - Orbit

View from above orbital plane
View from above orbital plane
View from above satellite
View from above satellite

Ground track
Ground track

The orbit data is extracted from the following two-line orbital elements,

1 39026U 12072A   18018.96160040 +.00001126 +00000-0 +45120-4 0  9992
2 39026 097.2147 034.4191 0041057 130.9430 229.5375 15.26288720282838
Epoch (UTC): 18 January 2018 23:04:42
Eccentricity: 0.0041057
inclination: 97.2147°
perigee height: 459 km
apogee height: 515 km
right ascension of ascending node: 34.4191°
argument of perigee: 130.9430°
revolutions per day: 15.26288720
mean anomaly at epoch: 229.5375°
orbit number at epoch: 28283

The dashed part of the orbit path shows where the satellite is in the earth's shadow,  

DLR